sat.trackr.live / text

‹ back to catalog

GUOWANG TEST OBJECT A

NORAD 69320 · 2026-120A

PAYLOAD ACTIVE UNKNOWN

§ Identity

Operator
Country
PRC
Launch date
2026-05-30
Launch site
XICLF
Launch vehicle
Mass (kg)
RCS (m²)

External: N2YO · Heavens-Above · Gunter

§ Orbital elements

Epoch: 2026-09-20T04:59:38.208768Z

Period
94.79 min
Inclination
55.0116°
Eccentricity
0.0010372
Mean motion
15.19123340 rev/d
Perigee alt
501.3 km
Apogee alt
515.6 km
Semi-major
6,886.6 km
B*
3.4886e-4
RAAN
326.4644°
Arg perigee
166.5807°
Mean anomaly
193.5490°
Rev number
1,722

§ Raw data

GUOWANG TEST OBJECT A1 69320U 26120A   26263.20808112  .00007108  00000+0  34886-3 0  99992 69320  55.0116 326.4644 0010372 166.5807 193.5490 15.19123340 17227

JSON: /api/v1/satellites/69320 · /tle

For live sub-satellite position, see the globe view (requires WebGL).

§ Visibility from observer

Set your observer location to see the next 7 days of passes ≥ 10°. The values pass through the URL so the page stays shareable.

No JS? Fill the form by hand. The geolocation button needs JavaScript.